P/2015 A3 ( PanSTARRS )

Japanese version
Home page
Updated on February 1, 2015

---------------------------------------------------------------------

* Profile

Discovery Date January 8, 2015
Magnitude 21.0 mag
Discoverer Pan-STARRS 1 telescope (Haleakala)

* Orbital Elements

Epoch 2015 Feb. 27.0 TT = JDT 2457080.5
T 2015 Feb. 22.48949 TT                                 MPCW
q   1.1557587            (2000.0)            P               Q
n   0.04478874     Peri.  249.27659     +0.87652095     +0.46370493
a   7.8527806      Node   277.09644     +0.47571354     -0.79345620
e   0.8528217      Incl.  172.51988     +0.07353670     -0.39421441
P  22.0
From 35 observations 2015 Jan. 8-24, mean residual 0".4.

* Magnitudes Graph

        m1 = 20.0 + 5 log d + 10.0 log r

---------------------------------------------------------------------

The orbital elements are published on M.P.E.C. 2015-B134.
The magnitudes graphs are made with Comet for Windows.

---------------------------------------------------------------------

Copyright(C) Seiichi Yoshida (comet@aerith.net). All rights reserved.